TimeCDT,TemperatureF,Dew PointF,Humidity,Sea Level PressureIn,VisibilityMPH,Wind Direction,Wind SpeedMPH,Gust SpeedMPH,PrecipitationIn,Events,Conditions,WindDirDegrees,DateUTC
12:53 AM,64.9,59.0,81,30.03,10.0,Calm,Calm,-,N/A,,Clear,0,2013-05-09 05:53:00
1:53 AM,64.9,59.0,81,30.01,10.0,SSE,3.5,-,N/A,,Clear,150,2013-05-09 06:53:00
2:53 AM,62.1,59.0,90,30.02,10.0,SE,3.5,-,N/A,,Clear,130,2013-05-09 07:53:00
3:53 AM,63.0,59.0,87,30.02,10.0,SE,3.5,-,N/A,,Clear,130,2013-05-09 08:53:00
4:53 AM,61.0,57.9,90,30.04,8.0,Calm,Calm,-,N/A,,Clear,0,2013-05-09 09:53:00
5:53 AM,60.1,57.9,93,30.06,5.0,Calm,Calm,-,N/A,,Clear,0,2013-05-09 10:53:00
6:53 AM,61.0,59.0,93,30.08,4.0,ESE,3.5,-,N/A,,Clear,120,2013-05-09 11:53:00
7:53 AM,66.0,62.1,87,30.08,7.0,SSW,3.5,-,N/A,,Clear,200,2013-05-09 12:53:00
8:53 AM,71.1,64.0,78,30.09,10.0,SW,6.9,-,N/A,,Clear,230,2013-05-09 13:53:00
9:53 AM,73.9,63.0,68,30.10,10.0,SW,6.9,-,N/A,,Clear,220,2013-05-09 14:53:00
10:53 AM,75.9,62.1,62,30.11,10.0,WSW,6.9,-,N/A,,Partly Cloudy,250,2013-05-09 15:53:00
12:53 PM,80.1,62.1,54,30.09,10.0,South,6.9,-,N/A,,Clear,190,2013-05-09 17:53:00
1:53 PM,82.9,60.1,46,30.07,10.0,South,12.7,-,N/A,,Partly Cloudy,180,2013-05-09 18:53:00
3:53 PM,82.9,61.0,47,30.03,10.0,South,10.4,-,N/A,,Scattered Clouds,180,2013-05-09 20:53:00
4:53 PM,82.9,61.0,47,30.00,10.0,SSE,11.5,-,N/A,,Partly Cloudy,150,2013-05-09 21:53:00
5:53 PM,81.0,61.0,50,30.00,10.0,South,11.5,-,N/A,,Clear,170,2013-05-09 22:53:00
6:53 PM,79.0,62.1,56,29.98,10.0,SSE,8.1,-,N/A,,Clear,160,2013-05-09 23:53:00
7:53 PM,75.9,63.0,64,30.00,10.0,South,5.8,-,N/A,,Clear,170,2013-05-10 00:53:00
8:53 PM,75.0,63.0,66,30.00,10.0,South,8.1,-,N/A,,Clear,170,2013-05-10 01:53:00
9:53 PM,73.9,63.0,68,30.01,10.0,South,6.9,-,N/A,,Clear,170,2013-05-10 02:53:00
10:53 PM,73.0,63.0,71,30.00,10.0,South,8.1,-,N/A,,Clear,170,2013-05-10 03:53:00
11:19 PM,73.4,64.4,73,30.02,10.0,SSE,9.2,-,N/A,Thunderstorm,Clear,160,2013-05-10 04:19:00